QPF
0.00 0.00 0.00 0.00 0.00 0.00 0.00 0.00 0.00 0.00 0.01 0.03 0.30 0.17 0.18 0.28 0.14 0.36 0.38 0.38 0.33 0.33 0.23 0.13 0.12 0.09 0.27 0.31 0.46 0.63 0.67 0.40 0.42 0.41 0.70 0.86 0.72 0.74 0.80 0.31 0.26 0.16
0.00 0.00 0.00 0.00 0.00 0.00 0.00 0.00 0.00 0.00 0.00 0.00 0.01 0.04 0.06 0.10 0.09 0.09 0.16 0.35 0.34 0.23 0.19 0.20 0.14 0.08 0.11 0.17 0.27 0.42 0.50 0.54 0.36 0.42 0.55 0.55 0.47 0.61 0.54 0.67 0.65 0.36
0.00 0.00 0.00 0.00 0.00 0.00 0.00 0.00 0.00 0.00 0.00 0.02 0.00 0.00 0.01 0.02 0.04 0.06 0.05 0.11 0.08 0.10 0.12 0.09 0.11 0.12 0.11 0.10 0.17 0.30 0.30 0.49 0.41 0.12 0.19 0.11 0.43 0.69 0.51 0.43 0.30 0.41
0.00 0.00 0.00 0.00 0.00 0.00 0.00 0.00 0.00 0.00 0.00 0.02 0.04 0.00 0.00 0.00 0.00 0.01 0.02 0.06 0.06 0.07 0.08 0.13 0.09 0.07 0.12 0.12 0.16 0.15 0.24 0.37 0.43 0.45 0.35 0.26 0.38 0.47 0.30 0.39 0.22 0.38
0.00 0.00 0.00 0.00 0.00 0.00 0.00 0.00 0.00 0.00 0.00 0.00 0.01 0.04 0.00 0.00 0.00 0.00 0.02 0.01 0.01 0.03 0.04 0.04 0.08 0.11 0.13 0.20 0.34 0.32 0.35 0.35 0.38 0.38 0.42 0.38 0.20 0.35 0.53 0.39 0.53 0.16
0.00 0.01 0.00 0.00 0.00 0.00 0.00 0.00 0.00 0.00 0.00 0.00 0.00 0.01 0.01 0.00 0.00 0.00 0.01 0.01 0.01 0.01 0.01 0.01 0.04 0.06 0.09 0.11 0.15 0.20 0.37 0.35 0.32 0.35 0.36 0.36 0.37 0.27 0.56 0.38 0.31 0.27
0.00 0.00 0.00 0.00 0.00 0.00 0.00 0.00 0.00 0.00 0.00 0.00 0.00 0.00 0.00 0.00 0.01 0.02 0.01 0.01 0.01 0.01 0.01 0.01 0.01 0.01 0.03 0.05 0.17 0.23 0.22 0.28 0.37 0.26 0.34 0.32 0.37 0.46 0.56 0.27 0.54 0.44
0.00 0.00 0.01 0.00 0.00 0.01 0.00 0.00 0.00 0.00 0.00 0.00 0.00 0.00 0.00 0.00 0.00 0.00 0.00 0.00 0.00 0.01 0.01 0.01 0.01 0.00 0.01 0.02 0.05 0.06 0.13 0.19 0.19 0.16 0.25 0.27 0.23 0.34 0.18 0.56 0.57 0.68
0.00 0.01 0.00 0.01 0.01 0.00 0.01 0.00 0.00 0.00 0.00 0.00 0.00 0.00 0.00 0.00 0.00 0.00 0.00 0.00 0.00 0.00 0.00 0.00 0.01 0.01 0.00 0.00 0.01 0.02 0.07 0.19 0.26 0.31 0.22 0.17 0.19 0.17 0.23 0.28 0.43 0.44
0.01 0.01 0.01 0.01 0.01 0.00 0.01 0.02 0.01 0.01 0.00 0.00 0.00 0.00 0.00 0.00 0.00 0.00 0.00 0.00 0.00 0.00 0.00 0.00 0.00 0.00 0.00 0.00 0.00 0.01 0.01 0.02 0.08 0.10 0.15 0.27 0.17 0.16 0.14 0.23 0.23 0.33
0.01 0.00 0.00 0.01 0.01 0.02 0.03 0.01 0.03 0.02 0.02 0.01 0.00 0.00 0.00 0.00 0.00 0.00 0.00 0.00 0.00 0.00 0.00 0.00 0.00 0.00 0.01 0.00 0.00 0.00 0.00 0.00 0.01 0.04 0.11 0.14 0.16 0.18 0.17 0.14 0.30 0.26
0.00 0.00 0.01 0.01 0.00 0.01 0.05 0.03 0.04 0.04 0.03 0.03 0.02 0.02 0.01 0.01 0.00 0.01 0.00 0.00 0.00 0.00 0.00 0.00 0.00 0.00 0.02 0.03 0.01 0.01 0.00 0.00 0.00 0.01 0.01 0.06 0.14 0.19 0.28 0.34 0.21 0.22
0.00 0.00 0.01 0.02 0.01 0.03 0.04 0.02 0.05 0.03 0.01 0.01 0.00 0.00 0.02 0.02 0.02 0.01 0.00 0.00 0.00 0.00 0.00 0.00 0.00 0.00 0.01 0.03 0.04 0.04 0.04 0.02 0.02 0.01 0.01 0.01 0.02 0.06 0.12 0.17 0.26 0.25
0.00 0.00 0.00 0.01 0.00 0.03 0.08 0.03 0.04 0.01 0.00 0.00 0.00 0.00 0.01 0.02 0.03 0.01 0.02 0.01 0.00 0.00 0.00 0.00 0.00 0.00 0.00 0.00 0.01 0.04 0.05 0.03 0.02 0.02 0.01 0.00 0.00 0.00 0.01 0.05 0.07 0.09
0.00 0.00 0.00 0.00 0.00 0.00 0.01 0.00 0.00 0.00 0.00 0.00 0.00 0.00 0.00 0.00 0.00 0.01 0.01 0.01 0.01 0.00 0.00 0.00 0.00 0.00 0.00 0.00 0.00 0.00 0.01 0.03 0.03 0.01 0.01 0.01 0.01 0.01 0.00 0.00 0.01 0.02
0.00 0.00 0.00 0.00 0.00 0.00 0.00 0.00 0.00 0.00 0.00 0.01 0.01 0.00 0.00 0.01 0.01 0.01 0.01 0.02 0.02 0.02 0.03 0.01 0.01 0.00 0.00 0.00 0.00 0.00 0.00 0.01 0.02 0.03 0.02 0.01 0.00 0.00 0.00 0.00 0.00 0.00
0.00 0.00 0.00 0.01 0.00 0.00 0.00 0.00 0.00 0.00 0.00 0.01 0.01 0.01 0.01 0.01 0.01 0.01 0.00 0.02 0.04 0.06 0.06 0.01 0.01 0.00 0.00 0.00 0.00 0.00 0.00 0.00 0.00 0.01 0.01 0.02 0.01 0.00 0.00 0.00 0.00 0.00
0.00 0.00 0.00 0.00 0.00 0.00 0.00 0.00 0.00 0.00 0.00 0.00 0.00 0.01 0.01 0.01 0.02 0.01 0.01 0.05 0.06 0.07 0.03 0.01 0.00 0.00 0.00 0.00 0.00 0.00 0.00 0.00 0.00 0.00 0.00 0.00 0.00 0.00 0.00 0.00 0.00 0.00
0.00 0.00 0.00 0.00 0.00 0.00 0.00 0.00 0.00 0.00 0.00 0.00 0.01 0.01 0.01 0.01 0.02 0.01 0.03 0.02 0.06 0.04 0.00 0.00 0.00 0.00 0.00 0.00 0.00 0.00 0.00 0.00 0.00 0.00 0.00 0.00 0.00 0.00 0.00 0.00 0.00 0.00
0.00 0.00 0.00 0.00 0.00 0.00 0.00 0.00 0.00 0.00 0.00 0.00 0.01 0.01 0.01 0.01 0.01 0.01 0.04 0.02 0.01 0.00 0.00 0.00 0.00 0.00 0.00 0.00 0.00 0.00 0.00 0.00 0.00 0.00 0.00 0.00 0.00 0.00 0.00 0.00 0.00 0.00
0.00 0.00 0.00 0.00 0.00 0.00 0.00 0.00 0.00 0.00 0.00 0.00 0.00 0.01 0.01 0.01 0.01 0.00 0.01 0.02 0.02 0.01 0.00 0.00 0.00 0.00 0.00 0.00 0.00 0.00 0.00 0.00 0.00 0.00 0.00 0.00 0.00 0.00 0.00 0.00 0.00 0.00
0.00 0.00 0.00 0.00 0.00 0.00 0.00 0.00 0.00 0.00 0.00 0.00 0.00 0.00 0.01 0.00 0.01 0.00 0.00 0.00 0.01 0.02 0.00 0.00 0.00 0.00 0.00 0.00 0.00 0.00 0.00 0.00 0.00 0.01 0.02 0.02 0.02 0.01 0.00 0.00 0.00 0.00
0.00 0.00 0.00 0.00 0.00 0.00 0.00 0.00 0.00 0.00 0.00 0.00 0.00 0.00 0.00 0.00 0.00 0.01 0.00 0.00 0.00 0.00 0.01 0.00 0.00 0.00 0.00 0.00 0.00 0.00 0.00 0.00 0.00 0.00 0.00 0.01 0.02 0.01 0.01 0.00 0.00 0.01
0.00 0.00 0.00 0.00 0.00 0.00 0.00 0.00 0.00 0.00 0.00 0.00 0.00 0.00 0.00 0.00 0.00 0.01 0.00 0.00 0.00 0.00 0.00 0.00 0.00 0.00 0.00 0.00 0.00 0.00 0.00 0.00 0.00 0.00 0.00 0.00 0.00 0.00 0.00 0.00 0.00 0.02
0.00 0.00 0.00 0.00 0.00 0.00 0.00 0.00 0.00 0.00 0.00 0.00 0.00 0.00 0.00 0.00 0.00 0.00 0.00 0.00 0.00 0.00 0.00 0.00 0.00 0.00 0.00 0.00 0.00 0.00 0.00 0.00 0.00 0.00 0.00 0.00 0.00 0.00 0.00 0.00 0.00 0.00
0.00 0.00 0.00 0.00 0.00 0.00 0.00 0.00 0.00 0.00 0.00 0.00 0.00 0.00 0.00 0.00 0.00 0.00 0.00 0.00 0.00 0.00 0.00 0.00 0.00 0.00 0.00 0.00 0.00 0.00 0.00 0.00 0.00 0.00 0.00 0.00 0.00 0.00 0.00 0.00 0.00 0.00
MSLP
1017.04 1016.88 1016.76 1016.60 1016.44 1016.24 1016.08 1016.00 1015.80 1015.72 1015.60 1015.40 1015.36 1015.32 1015.36 1015.32 1015.16 1015.20 1015.28 1015.36 1015.44 1015.72 1015.68 1015.72 1015.28 1014.76 1014.84 1014.96 1015.04 1015.32 1015.60 1015.84 1015.96 1016.20 1016.48 1016.80 1016.96 1017.20 1017.84 1018.20 1018.36 1018.32
1017.20 1017.04 1016.84 1016.68 1016.56 1016.36 1016.28 1016.16 1016.00 1015.84 1015.72 1015.52 1015.40 1015.32 1015.24 1015.32 1015.36 1015.28 1015.36 1015.48 1015.60 1015.52 1015.56 1015.52 1014.96 1014.52 1014.60 1014.88 1015.08 1015.36 1015.72 1015.92 1016.16 1016.36 1016.64 1016.72 1016.88 1017.16 1018.00 1018.48 1018.76 1018.76
1017.36 1017.24 1017.08 1016.96 1016.80 1016.60 1016.40 1016.24 1016.04 1015.88 1015.72 1015.48 1015.44 1015.44 1015.40 1015.24 1015.40 1015.36 1015.32 1015.44 1015.52 1015.36 1015.32 1015.40 1015.12 1014.88 1014.56 1014.68 1014.96 1015.32 1015.76 1016.00 1016.20 1016.24 1016.56 1016.84 1016.92 1017.36 1017.88 1018.28 1018.52 1018.76
1017.48 1017.32 1017.20 1017.04 1016.88 1016.72 1016.48 1016.36 1016.20 1015.96 1015.76 1015.64 1015.52 1015.44 1015.36 1015.36 1015.28 1015.28 1015.32 1015.32 1015.32 1015.36 1015.20 1015.16 1015.12 1015.04 1015.16 1014.80 1014.80 1015.12 1015.48 1015.80 1015.96 1016.00 1016.24 1016.48 1016.80 1017.24 1017.68 1017.96 1018.16 1018.80
1017.56 1017.40 1017.16 1017.00 1016.84 1016.72 1016.56 1016.48 1016.32 1016.16 1016.00 1015.76 1015.56 1015.40 1015.28 1015.32 1015.36 1015.28 1015.24 1015.36 1015.40 1015.40 1015.32 1015.20 1015.04 1015.08 1015.12 1015.04 1014.84 1014.88 1015.20 1015.56 1015.72 1015.84 1016.08 1016.32 1016.56 1016.92 1017.44 1017.72 1017.96 1018.28
1017.52 1017.36 1017.20 1017.04 1016.88 1016.76 1016.64 1016.52 1016.32 1016.16 1016.00 1015.84 1015.68 1015.48 1015.36 1015.24 1015.36 1015.32 1015.28 1015.32 1015.36 1015.44 1015.44 1015.28 1015.24 1015.36 1015.28 1014.96 1014.96 1014.88 1015.00 1015.32 1015.60 1015.76 1016.00 1016.24 1016.52 1016.72 1017.12 1017.40 1017.64 1017.96
1017.56 1017.32 1017.20 1017.04 1016.88 1016.72 1016.60 1016.44 1016.32 1016.16 1016.00 1015.84 1015.68 1015.60 1015.44 1015.32 1015.32 1015.32 1015.24 1015.24 1015.32 1015.44 1015.44 1015.48 1015.44 1015.24 1015.00 1015.04 1015.00 1015.04 1015.00 1015.24 1015.60 1015.80 1015.88 1016.20 1016.32 1016.68 1016.92 1017.20 1017.44 1017.60
1017.60 1017.40 1017.28 1017.12 1017.00 1016.84 1016.60 1016.40 1016.24 1016.08 1015.88 1015.76 1015.68 1015.56 1015.40 1015.32 1015.16 1015.04 1015.16 1015.12 1015.32 1015.40 1015.40 1015.36 1015.32 1015.16 1014.96 1014.84 1014.92 1015.00 1015.12 1015.12 1015.48 1015.64 1015.68 1015.88 1016.16 1016.44 1017.00 1017.40 1017.76 1017.84
1017.64 1017.56 1017.36 1017.24 1017.08 1016.84 1016.60 1016.44 1016.28 1016.04 1015.88 1015.80 1015.68 1015.56 1015.40 1015.24 1015.12 1014.96 1014.96 1015.04 1015.08 1015.20 1015.16 1015.12 1015.12 1015.16 1015.08 1015.04 1014.92 1014.88 1015.00 1015.08 1015.08 1015.24 1015.44 1015.72 1016.08 1016.60 1016.80 1017.00 1017.32 1017.84
1017.72 1017.56 1017.48 1017.32 1017.08 1016.88 1016.76 1016.60 1016.40 1016.24 1016.04 1015.92 1015.76 1015.60 1015.48 1015.32 1015.20 1015.04 1014.84 1014.88 1014.92 1014.96 1014.96 1015.04 1015.08 1015.16 1015.20 1015.20 1015.16 1015.00 1014.84 1014.84 1014.92 1015.04 1015.24 1015.48 1015.88 1016.28 1016.68 1017.04 1017.40 1017.88
1017.72 1017.56 1017.44 1017.32 1017.08 1016.92 1016.84 1016.56 1016.44 1016.32 1016.12 1015.88 1015.80 1015.72 1015.56 1015.48 1015.36 1015.12 1015.04 1014.88 1014.84 1014.80 1014.80 1014.76 1014.76 1015.04 1015.32 1015.36 1015.28 1015.12 1015.00 1014.80 1014.76 1014.84 1015.04 1015.20 1015.44 1015.84 1016.28 1016.76 1017.12 1017.48
1017.76 1017.68 1017.56 1017.48 1017.20 1017.08 1016.88 1016.60 1016.40 1016.24 1016.08 1015.88 1015.68 1015.68 1015.68 1015.68 1015.60 1015.40 1015.32 1015.20 1015.00 1014.80 1014.68 1014.64 1014.56 1014.84 1015.08 1015.20 1015.24 1015.16 1015.00 1014.84 1014.76 1014.72 1014.80 1015.00 1015.28 1015.64 1015.92 1016.20 1016.56 1016.84
1017.84 1017.84 1017.72 1017.44 1017.20 1017.12 1016.84 1016.60 1016.44 1016.20 1015.92 1015.76 1015.64 1015.64 1015.68 1015.64 1015.60 1015.48 1015.36 1015.36 1015.12 1014.88 1014.80 1014.68 1014.64 1014.60 1014.88 1015.00 1015.08 1015.08 1015.04 1014.96 1014.92 1014.80 1014.80 1014.92 1015.08 1015.32 1015.48 1015.68 1015.96 1016.20
1017.96 1017.76 1017.68 1017.44 1017.24 1017.04 1016.88 1016.56 1016.24 1016.08 1015.96 1015.92 1015.92 1015.88 1015.80 1015.84 1015.80 1015.68 1015.56 1015.36 1015.16 1015.00 1014.92 1014.76 1014.80 1015.48 1015.96 1015.96 1015.68 1015.32 1015.12 1015.04 1014.92 1014.96 1015.00 1015.04 1015.04 1015.00 1015.12 1015.32 1015.48 1015.76
1017.84 1017.76 1017.60 1017.40 1017.20 1016.96 1016.72 1016.52 1016.32 1016.24 1016.12 1016.04 1016.12 1016.16 1016.08 1016.08 1015.92 1015.80 1015.64 1015.56 1015.28 1015.12 1015.08 1015.32 1016.00 1016.44 1016.72 1016.84 1016.36 1015.88 1015.44 1015.20 1015.20 1015.20 1015.24 1015.28 1015.20 1015.12 1015.00 1015.00 1015.16 1015.40
1017.84 1017.76 1017.56 1017.40 1017.24 1017.04 1016.76 1016.60 1016.48 1016.44 1016.40 1016.48 1016.52 1016.44 1016.40 1016.28 1016.20 1016.12 1016.04 1015.84 1015.56 1015.52 1016.00 1016.32 1016.68 1017.00 1017.24 1017.12 1017.00 1016.56 1016.08 1015.64 1015.44 1015.40 1015.44 1015.48 1015.44 1015.32 1015.12 1014.96 1015.00 1015.12
1017.96 1017.76 1017.60 1017.44 1017.24 1017.00 1016.80 1016.76 1016.72 1016.64 1016.72 1016.68 1016.72 1016.68 1016.68 1016.64 1016.56 1016.40 1016.32 1016.32 1016.24 1016.36 1016.60 1016.88 1017.16 1017.52 1017.60 1017.36 1017.08 1016.88 1016.60 1016.28 1015.88 1015.60 1015.48 1015.48 1015.48 1015.44 1015.32 1015.12 1015.00 1014.96
1018.16 1017.88 1017.68 1017.52 1017.28 1017.08 1016.92 1016.88 1016.80 1016.80 1016.92 1016.92 1016.96 1016.96 1016.84 1016.84 1016.88 1016.84 1016.80 1016.76 1016.76 1016.80 1016.96 1017.12 1017.44 1017.80 1017.64 1017.48 1017.24 1017.08 1016.96 1016.64 1016.16 1015.76 1015.52 1015.40 1015.28 1015.16 1015.12 1015.04 1014.96 1014.92
1018.32 1018.00 1017.68 1017.44 1017.32 1017.12 1017.00 1016.92 1016.96 1017.04 1017.20 1017.20 1017.16 1017.08 1017.00 1017.08 1017.20 1017.12 1017.08 1017.08 1017.16 1017.28 1017.44 1017.52 1017.60 1017.76 1017.48 1017.40 1017.32 1017.20 1017.04 1016.72 1016.16 1015.76 1015.56 1015.36 1015.16 1015.00 1014.96 1014.96 1014.92 1014.96
1018.40 1018.00 1017.72 1017.52 1017.32 1017.16 1017.04 1017.08 1017.12 1017.24 1017.28 1017.28 1017.20 1017.12 1017.16 1017.20 1017.20 1017.24 1017.20 1017.24 1017.40 1017.56 1017.72 1017.80 1017.84 1017.84 1017.56 1017.32 1017.08 1016.84 1016.64 1016.44 1015.96 1015.64 1015.44 1015.28 1015.12 1014.92 1014.88 1014.84 1014.88 1015.04
1018.52 1018.20 1017.96 1017.64 1017.44 1017.32 1017.28 1017.20 1017.20 1017.20 1017.24 1017.28 1017.16 1017.16 1017.16 1017.20 1017.20 1017.28 1017.32 1017.36 1017.52 1017.64 1017.72 1018.00 1018.12 1018.08 1017.72 1017.44 1017.24 1017.00 1016.68 1016.24 1015.72 1015.44 1015.28 1015.08 1014.92 1014.80 1014.80 1014.76 1014.84 1014.96
1018.60 1018.40 1018.16 1017.84 1017.60 1017.52 1017.48 1017.44 1017.32 1017.24 1017.20 1017.12 1017.04 1017.04 1017.04 1017.04 1017.08 1017.08 1017.20 1017.28 1017.36 1017.48 1017.68 1017.88 1018.00 1018.04 1017.84 1017.60 1017.28 1016.92 1016.60 1016.12 1015.60 1015.32 1015.08 1015.00 1014.96 1014.92 1014.84 1014.84 1014.88 1014.92
1018.56 1018.48 1018.44 1018.16 1018.00 1017.88 1017.84 1017.64 1017.52 1017.48 1017.32 1017.12 1017.00 1017.00 1017.00 1017.04 1017.04 1017.12 1017.20 1017.28 1017.40 1017.44 1017.52 1017.80 1017.88 1018.12 1017.92 1017.64 1017.40 1017.00 1016.64 1016.24 1015.76 1015.32 1015.00 1014.80 1014.80 1014.80 1014.88 1014.88 1015.04 1015.12
1018.56 1018.48 1018.44 1018.32 1018.20 1018.12 1018.04 1017.84 1017.60 1017.52 1017.40 1017.16 1017.04 1016.96 1017.00 1017.04 1016.92 1017.00 1017.12 1017.28 1017.44 1017.60 1017.60 1017.84 1017.96 1018.20 1018.04 1017.84 1017.64 1017.24 1016.88 1016.48 1015.96 1015.48 1015.04 1015.16 1015.20 1014.96 1014.84 1015.20 1015.80 1015.80
1018.56 1018.56 1018.56 1018.40 1018.28 1018.20 1018.00 1017.88 1017.72 1017.56 1017.36 1017.20 1017.00 1016.92 1017.08 1017.08 1017.00 1016.96 1017.04 1017.20 1017.36 1017.52 1017.52 1017.56 1017.84 1018.16 1018.16 1017.96 1017.68 1017.44 1017.08 1016.64 1016.16 1015.96 1016.04 1016.08 1015.80 1015.56 1015.20 1015.16 1016.08 1016.44
1018.60 1018.64 1018.52 1018.44 1018.24 1018.04 1017.88 1017.72 1017.60 1017.44 1017.36 1017.20 1017.00 1016.92 1017.04 1017.12 1017.12 1017.00 1017.00 1017.12 1017.20 1017.24 1017.36 1017.32 1017.68 1018.24 1018.28 1018.12 1017.88 1017.56 1017.32 1017.04 1016.72 1016.80 1016.92 1016.84 1016.44 1016.04 1015.60 1015.32 1015.64 1016.04
Thickness
5595 5597 5598 5599 5601 5602 5604 5605 5606 5608 5609 5612 5613 5614 5615 5616 5619 5621 5622 5623 5623 5624 5625 5628 5635 5640 5643 5644 5647 5647 5647 5647 5648 5649 5652 5654 5654 5656 5654 5651 5652 5653
5591 5593 5594 5596 5597 5598 5600 5601 5602 5604 5605 5608 5610 5611 5612 5612 5614 5616 5618 5619 5619 5620 5621 5623 5630 5638 5640 5642 5643 5643 5642 5643 5644 5645 5646 5648 5650 5652 5649 5646 5646 5646
5586 5588 5590 5591 5592 5594 5596 5597 5599 5600 5602 5604 5606 5607 5608 5608 5609 5611 5613 5614 5616 5617 5620 5621 5625 5632 5636 5638 5640 5639 5639 5639 5641 5643 5643 5644 5646 5647 5644 5644 5643 5641
5583 5584 5586 5588 5589 5590 5592 5594 5595 5597 5598 5600 5602 5604 5605 5605 5605 5607 5609 5610 5611 5613 5617 5618 5621 5625 5629 5633 5636 5637 5636 5637 5639 5641 5642 5643 5644 5643 5641 5643 5643 5639
5579 5581 5583 5584 5586 5587 5589 5590 5591 5593 5594 5596 5598 5601 5602 5602 5602 5603 5605 5606 5608 5609 5612 5614 5617 5621 5623 5627 5631 5634 5634 5635 5637 5639 5640 5641 5643 5641 5640 5642 5643 5639
5576 5578 5580 5581 5584 5584 5585 5587 5588 5590 5591 5592 5594 5596 5599 5600 5599 5599 5600 5602 5605 5607 5608 5610 5613 5616 5619 5622 5625 5629 5631 5632 5633 5636 5637 5638 5640 5640 5640 5642 5642 5640
5574 5575 5577 5578 5580 5581 5583 5584 5585 5587 5588 5589 5591 5592 5595 5596 5596 5596 5597 5599 5602 5603 5605 5607 5608 5611 5614 5618 5621 5624 5628 5629 5629 5632 5634 5635 5636 5637 5638 5640 5640 5640
5570 5572 5574 5575 5577 5578 5580 5582 5583 5585 5586 5587 5588 5589 5592 5593 5594 5595 5596 5597 5598 5600 5602 5605 5607 5609 5611 5615 5619 5622 5624 5626 5626 5629 5631 5633 5634 5633 5634 5635 5636 5636
5567 5569 5570 5571 5573 5575 5577 5579 5581 5582 5584 5585 5586 5587 5589 5591 5592 5593 5594 5596 5597 5598 5600 5603 5605 5607 5608 5611 5615 5619 5622 5624 5626 5628 5630 5630 5631 5630 5631 5632 5632 5631
5564 5565 5566 5568 5570 5572 5574 5575 5577 5578 5580 5582 5583 5584 5585 5587 5589 5591 5593 5594 5596 5597 5599 5601 5603 5604 5604 5606 5610 5614 5619 5622 5625 5626 5627 5628 5629 5628 5628 5629 5629 5627
5560 5562 5563 5564 5566 5568 5570 5572 5574 5575 5577 5579 5580 5580 5581 5583 5585 5588 5589 5591 5593 5596 5598 5599 5601 5601 5600 5601 5605 5609 5614 5618 5622 5625 5626 5627 5627 5627 5627 5626 5625 5624
5556 5557 5559 5561 5563 5565 5567 5569 5571 5572 5575 5576 5578 5578 5578 5579 5581 5583 5585 5586 5589 5593 5595 5597 5599 5600 5600 5601 5602 5606 5609 5613 5618 5622 5624 5625 5625 5625 5626 5625 5626 5625
5552 5553 5555 5557 5560 5561 5563 5566 5568 5570 5572 5574 5575 5576 5576 5575 5577 5579 5580 5582 5585 5589 5591 5594 5596 5597 5598 5599 5599 5602 5605 5608 5613 5616 5620 5622 5623 5624 5625 5624 5626 5626
5549 5550 5552 5554 5557 5559 5560 5563 5566 5567 5569 5570 5570 5571 5572 5571 5573 5575 5577 5578 5581 5584 5587 5590 5592 5591 5590 5590 5593 5597 5601 5604 5607 5611 5614 5617 5619 5622 5624 5624 5625 5626
5547 5548 5550 5551 5554 5556 5558 5560 5562 5563 5565 5565 5564 5565 5567 5567 5569 5570 5572 5574 5577 5580 5582 5584 5583 5581 5580 5582 5586 5591 5597 5600 5603 5605 5608 5610 5613 5616 5620 5622 5624 5624
5544 5546 5547 5549 5550 5553 5555 5556 5558 5559 5559 5559 5559 5560 5561 5562 5564 5565 5567 5570 5573 5574 5574 5574 5573 5572 5573 5576 5580 5585 5590 5594 5597 5600 5602 5604 5607 5610 5614 5618 5620 5620
5541 5543 5544 5546 5548 5549 5551 5552 5553 5553 5554 5554 5554 5554 5555 5557 5558 5560 5561 5563 5566 5566 5565 5564 5565 5565 5568 5571 5575 5579 5583 5587 5591 5594 5598 5600 5603 5606 5609 5613 5615 5618
5538 5540 5542 5543 5545 5547 5548 5548 5549 5549 5549 5549 5549 5550 5550 5551 5552 5554 5555 5556 5558 5559 5559 5559 5559 5560 5563 5567 5570 5573 5576 5581 5586 5590 5594 5597 5600 5603 5606 5608 5611 5614
5534 5537 5539 5540 5542 5543 5544 5545 5545 5544 5544 5544 5545 5546 5546 5546 5547 5548 5550 5551 5553 5553 5553 5554 5554 5556 5560 5563 5566 5569 5572 5576 5583 5588 5590 5593 5597 5601 5603 5605 5607 5609
5531 5534 5536 5537 5539 5540 5541 5542 5541 5540 5541 5540 5542 5542 5542 5542 5542 5544 5545 5546 5548 5549 5549 5549 5549 5551 5555 5559 5562 5566 5570 5574 5580 5585 5587 5591 5595 5598 5600 5602 5604 5604
5528 5529 5531 5533 5536 5536 5537 5537 5537 5537 5538 5537 5539 5539 5539 5539 5540 5540 5541 5543 5544 5546 5546 5545 5545 5547 5550 5554 5558 5562 5567 5572 5578 5582 5585 5589 5592 5595 5598 5599 5600 5601
5524 5525 5526 5529 5530 5531 5532 5533 5533 5534 5535 5536 5537 5537 5537 5537 5537 5538 5539 5540 5542 5544 5543 5543 5543 5544 5546 5550 5554 5558 5563 5569 5574 5579 5583 5587 5589 5591 5593 5594 5597 5599
5521 5522 5522 5524 5525 5526 5527 5529 5530 5531 5532 5534 5535 5535 5535 5535 5535 5536 5537 5537 5539 5541 5541 5542 5541 5541 5543 5546 5549 5554 5559 5564 5570 5576 5581 5584 5585 5588 5589 5590 5592 5594
5519 5519 5519 5520 5522 5523 5524 5526 5527 5528 5530 5532 5533 5533 5533 5533 5534 5534 5535 5536 5537 5537 5539 5540 5539 5539 5540 5543 5546 5550 5554 5559 5565 5571 5575 5577 5579 5583 5586 5586 5585 5586
5518 5518 5518 5519 5520 5521 5523 5525 5526 5528 5529 5530 5532 5533 5531 5531 5532 5533 5534 5534 5535 5536 5538 5539 5538 5537 5538 5541 5543 5546 5550 5555 5560 5563 5566 5568 5571 5576 5580 5582 5582 5581
5518 5517 5517 5519 5520 5521 5523 5524 5526 5528 5529 5530 5531 5531 5531 5530 5531 5532 5533 5533 5535 5536 5537 5538 5537 5536 5535 5538 5541 5543 5546 5550 5553 5555 5556 5559 5564 5569 5574 5579 5580 5578